This is the latest recevied weather packets stored in our database for station/object KB3GVC-13. If no packets are shown the sender has not sent any weather packets the latest 10 day(s).
| Time | Temp. | Humidity | Pressure | Rain* | Wind** | Luminosity | Snow |
|---|---|---|---|---|---|---|---|
| 1777928492 | 23.33° C | 34% | 1011.2 hPa | 0 mm | - | - | - |
| 1777928190 | 23.33° C | 35% | 1011.4 hPa | 0 mm | - | - | - |
| 1777927887 | 23.33° C | 34% | 1011.3 hPa | 0 mm | - | - | - |
| 1777927586 | 23.33° C | 35% | 1011.3 hPa | 0 mm | - | - | - |
| 1777927284 | 23.33° C | 35% | 1011.1 hPa | 0 mm | - | - | - |
| 1777926982 | 23.33° C | 35% | 1011.2 hPa | 0 mm | - | - | - |
| 1777926680 | 23.33° C | 36% | 1011.5 hPa | 0 mm | - | - | - |
| 1777926379 | 22.78° C | 35% | 1011.3 hPa | 0 mm | - | - | - |
| 1777926077 | 23.33° C | 35% | 1011.6 hPa | 0 mm | - | - | - |
| 1777925773 | 23.33° C | 36% | 1011.6 hPa | 0 mm | - | - | - |
| 1777925472 | 23.33° C | 34% | 1011.6 hPa | 0 mm | - | - | - |
| 1777925168 | 23.89° C | 34% | 1011.6 hPa | 0 mm | - | - | - |
| 1777924864 | 23.89° C | 34% | 1011.9 hPa | 0 mm | - | - | - |
| 1777924561 | 23.89° C | 35% | 1011.7 hPa | 0 mm | - | - | - |
| 1777924257 | 22.78° C | 35% | 1012 hPa | 0 mm | - | - | - |
| 1777923954 | 23.33° C | 35% | 1012.2 hPa | 0 mm | - | - | - |
| 1777923649 | 22.78° C | 35% | 1012.3 hPa | 0 mm | - | - | - |
| 1777923346 | 22.78° C | 33% | 1012.2 hPa | 0 mm | - | - | - |
| 1777923045 | 22.78° C | 35% | 1012.2 hPa | 0 mm | - | - | - |
| 1777922743 | 22.78° C | 34% | 1012.4 hPa | 0 mm | - | - | - |
| 1777922440 | 22.78° C | 33% | 1012.4 hPa | 0 mm | - | - | - |
| 1777922138 | 22.78° C | 34% | 1012.5 hPa | 0 mm | - | - | - |
| 1777921834 | 22.78° C | 33% | 1012.5 hPa | 0 mm | - | - | - |
| 1777921531 | 22.78° C | 35% | 1012.8 hPa | 0 mm | - | - | - |
| 1777921226 | 22.22° C | 36% | 1012.9 hPa | 0 mm | - | - | - |
* Rain latest hour (hover to see other rain measurements)
** Current wind speed in m/s (hover to see current wind gust speed)